Location: ????????
(55.7667°N, 37.4833°E)
Time: 08:09:33
(UTC+00:00)

Ariane Rocket - Pass Details

Date: 19 May 2025
Orbit: 755 x 765 km, 98.5° (Epoch: 23 June)

Event Time Altitude Azimuth Distance (km) Brightness Sun altitude
Exits shadow 19:37:00 - 193° (SSW) 2,573 5.3 -10.8°
Reaches altitude 10° 19:37:46 10° 197° (SSW) 2,293 5.0 -10.8°
Maximum altitude 19:42:25 37° 264° (W) 1,185 4.2 -11.1°
Drops below altitude 10° 19:47:08 10° 331° (NNW) 2,314 7.1 -11.4°
Sets 19:49:38 0° 340° (NNW) 3,246 8.4 -11.5°
